Regional Weather Roundup
Issued by NWS Green Bay, WI

Home | Current Version | Previous Version | Text Only | Print | Product List | Glossary On
Versions: 1 2 3 4 5 6 7 8 9 10 11 12 13 14 15 16 17 18 19 20 21 22 23 24 25 26 27 28 29 30 31 32 33 34 35 36 37 38 39 40 41 42 43 44 45 46 47 48 49 50
000
ASUS43 KGRB 021311
RWRGRB

NORTH-CENTRAL AND NORTHEAST WISCONSIN REGIONAL WEATHER ROUNDUP
NATIONAL WEATHER SERVICE GREEN BAY WI
800 AM CDT WED SEP 02 2015

WIZ005-009-010>012-018-019-021400-
NORTH CENTRAL WISCONSIN

CITY           SKY/WX    TMP DP  RH WIND       PRES   REMARKS
IRONWOOD       CLOUDY    68  68 100 SW8       29.97R
MANITOWISH WTR TSTM      64  64 100 W5        30.06R
ARBOR VITAE    TSTM      67  64  90 NW21G31   30.05R
EAGLE RIVER    FOG       68  68 100 CALM      29.99F VSB 3/4
LAND O LAKES   TSTM      64  64  99 N3        30.02R VSB 1
RHINELANDER    CLOUDY    71  70  96 SW6       30.01R FOG
PHILLIPS       CLOUDY    66  64  94 CALM      30.02R
ANTIGO         CLOUDY    70  70 100 SW3       30.02R FOG
TOMAHAWK       CLOUDY    70  69  97 CALM      30.01R FOG
MERRILL          N/A     68  68 100 CALM      30.00S FOG
$$

WIZ013-073-021400-
NORTHEAST WISCONSIN

CITY           SKY/WX    TMP DP  RH WIND       PRES   REMARKS
IRON MOUNTAIN  CLOUDY    70  67  90 CALM      29.98S FOG
MARINETTE      MOSUNNY   72  68  88 CALM      29.97S
OCONTO         MOSUNNY   72  72 100 CALM      29.98S
$$

WIZ017-030-035>037-045-021400-
CENTRAL WISCONSIN

CITY           SKY/WX    TMP DP  RH WIND       PRES   REMARKS
MEDFORD        CLOUDY    71  71  99 SW5       30.01R FOG
WAUSAU         CLOUDY    72  71  97 SW3       29.99R FOG
MOSINEE        MOSUNNY   72  72 100 S6        30.01S FOG
MARSHFIELD     FOG       71  68  90 S3        30.00S VSB 1/4
WISC RAPIDS    PTSUNNY   74  70  87 SW5       30.01S FOG
STEVENS POINT  PTSUNNY   72  71  96 S5        30.01S FOG
WAUPACA        MOSUNNY   74  73  96 S3        30.00S FOG
SHAWANO        CLOUDY    73  71  95 CALM      29.99S FOG
CLINTONVILLE   MOSUNNY   70  70 100 CALM      29.99S FOG
WAUTOMA        MOSUNNY   73  73 100 CALM      30.02R FOG
$$

WIZ038-039-048-051-021400-
FOX VALLEY

CITY           SKY/WX    TMP DP  RH WIND       PRES   REMARKS
NWS GREEN BAY  SUNNY     74  72  93 CALM      29.99S FOG
APPLETON       PTSUNNY   73  73 100 SW9       29.99S FOG
OSHKOSH        SUNNY     74  70  87 S7        30.01R FOG
FOND DU LAC    SUNNY     73  71  93 S5        30.02R
$$

WIZ022-050-052-021400-
EAST CENTRAL WISCONSIN

CITY           SKY/WX    TMP DP  RH WIND       PRES   REMARKS
EPHRAIM        FAIR      72  71  96 CALM      29.97S FOG
STURGEON BAY   SUNNY     73  70  88 W3        30.01S
MANITOWOC      SUNNY     76  72  87 MISG      30.00S
SHEBOYGAN      SUNNY     75  72  90 SW7       30.02R
$$

LMZ563-521-522-541>543-021400-
LAKESHORE

STATION/POSITION TIME  TEMP    WIND        PRES    VSBY  WAVE
                       AIR SEA DIR/SP/G                  HT/PER
                 (UTC) (F)     (DEG/KT/KT) (MB)    (MI)  (FT/S)
SHEBOYGAN LKSHOR 1300   76     250/  8/ 10 1016.2R
KEWAUNEE LKSHORE 1200   55     180/  2/  4 1014.4R
ALGOMA MARINA    1244             CALM       N/A
NORTHPORT PIER   1200   65      CALM  /  1 1014.9R
N MID LAKE BUOY  1250   66 65  200/  4/  6 1014.9R         1/ 4
SISTER BAY LKSHO 1219   70        CALM       N/A
CHAMBERS ISLAND  1200   68     190/  2/  5 1014.9R
MENOMINEE LKSHOR 1200   68     200/  3/  4 1013.7R
$$



USA.gov is the U.S. government's official web portal to all federal, state and local government web resources and services.